Regional Weather Roundup
Issued by NWS

Home | Current Version | Previous Version | Graphics & Text | Print | Product List | Glossary On
Versions: 1 2 3 4 5 6 7 8 9 10 11 12 13 14 15 16 17 18 19 20 21 22 23 24 25 26 27 28 29 30 31 32 33 34 35 36 37 38 39 40 41 42 43 44 45 46 47 48 49 50
000
ASUS43 KDMX 101701
RWRIA

WEATHER ROUNDUP FOR IOWA
NATIONAL WEATHER SERVICE DES MOINES IA
1100 AM CST SUN DEC 10 2017

NOTE: "FAIR" INDICATES FEW OR NO CLOUDS BELOW 12,000 FEET WITH NO
SIGNIFICANT WEATHER AND/OR OBSTRUCTIONS TO VISIBILITY.

* - THESE STATIONS ARE NOT NWS STATIONS...THUS NOT UNDER NWS
QUALITY CONTROL.  THEY ALSO DO NOT REPORT WEATHER SUCH
AS PRECIPITATION OR FOG.

IAZ001>003-012>014-020>022-031>034-043>046-101800-
   NORTHWEST IOWA

CITY           SKY/WX    TMP DP  RH WIND       PRES   REMARKS
CARROLL *      SUNNY     41  27  56 NW20      30.04F
DENISON *      SUNNY     43  27  52 NW17      30.08S
LE MARS *      SUNNY     39  28  65 W12G18    30.09R WCI  32
ORANGE CITY *  SUNNY     37  30  75 NW16      30.06R WCI  28
SHELDON *      SUNNY     36  28  75 NW15      30.04R WCI  26
SIOUX CITY     SUNNY     44  27  51 NW20      30.09R
SPENCER        SUNNY     36  26  67 NW13      30.04R WCI  27
STORM LAKE *   SUNNY     37  27  65 NW15      30.04S WCI  28
$$

IAZ055>058-069>071-079>083-090>094-101800-
   SOUTHWEST IOWA

CITY           SKY/WX    TMP DP  RH WIND       PRES   REMARKS
ATLANTIC *     SUNNY     43  27  52 NW18      30.07R
AUDUBON *      SUNNY     43  27  52 NW9G17    30.06S
CLARINDA *     SUNNY     45  27  49 NW15        N/A
COUNCIL BLFS * SUNNY     45  28  53 NW16G26   30.09S
CRESTON *      SUNNY     43  27  52 NW17      30.06R
HARLAN  *      SUNNY     43  27  52 NW18      30.10S
LAMONI         SUNNY     42  25  50 N16G22    30.04R
RED OAK *      SUNNY     45  28  53 NW14G22   30.09S
SHENANDOAH *   SUNNY     46  27  46 NW8G17    30.11S
$$

IAZ047>049-059>061-072>074-084-101800-
   CENTRAL IOWA

CITY           SKY/WX    TMP DP  RH WIND       PRES   REMARKS
AMES           SUNNY     40  26  57 NW20G26   30.02R WCI  30
ANKENY *       MOSUNNY   39  25  56 NW17G23   30.04R WCI  30
BOONE *        SUNNY     39  25  56 NW15      30.01R WCI  31
CHARITON *     SUNNY     41  25  52 NW15G24   30.02R
DES MOINES     MOSUNNY   41  24  51 N16G28    30.03R
GRINNELL*      CLOUDY    37  26  63 NW22      30.00R WCI  26
KNOXVILLE *    MOSUNNY   39  23  52 NW20G30   30.00R WCI  30
MARSHALLTOWN   SUNNY     37  25  61 NW15G24   29.99R WCI  28
NEWTON *       SUNNY     37  25  60 NW17G24   30.00R WCI  28
PELLA *        SUNNY     39  25  56 NW18G25   30.02R WCI  30
$$

IAZ004>006-015-016-023>025-035-036-101800-
   NORTH CENTRAL IOWA

CITY           SKY/WX    TMP DP  RH WIND       PRES   REMARKS
ALGONA *       SUNNY     36  25  64 N17G24    30.01R WCI  25
CLARION *      SUNNY     36  25  64 N15G25    30.01R WCI  26
ESTHERVILLE    SUNNY     34  26  72 NW18      30.01R WCI  23
FORT DODGE *   SUNNY     38  25  59 NW9       30.02R WCI  31
MASON CITY     SUNNY     33  22  63 N20       30.00R WCI  21
FOREST CITY *    N/A     34  25  69 NW17      30.01R WCI  23
IOWA FALLS *     N/A     36  26  65 NW20      30.00R WCI  26
$$

IAZ007>011-017>019-026>030-037>042-050>054-066-101800-
   NORTHEAST IOWA

CITY           SKY/WX    TMP DP  RH WIND       PRES   REMARKS
CEDAR RAPIDS   SUNNY     35  24  64 NW20      29.95R WCI  24
CHARLES CITY * CLOUDY    30  25  80 NW20      29.98R WCI  18
CLINTON *      SUNNY     32  21  64 NW14      29.93R WCI  22
DECORAH *      CLOUDY    27  23  86 NW13      29.94R WCI  16
DUBUQUE        SUNNY     30  20  66 N10       29.91R WCI  21
MONTICELLO *   SUNNY     34  23  64 NW12      29.94R WCI  25
OELWEIN *      MOSUNNY   32  25  74 NW16      29.95R WCI  21
WATERLOO       SUNNY     34  23  64 N17       29.96R WCI  23
$$

IAZ064-065-067-068-078-101800-
   EAST CENTRAL IOWA

CITY           SKY/WX    TMP DP  RH WIND       PRES   REMARKS
DAVENPORT      SUNNY     34  22  61 NW15      29.95R WCI  24
IOWA CITY      SUNNY     38  24  57 NW15      29.98R WCI  29
MT. PLEASANT * SUNNY     37  24  58 NW13G21   29.97R WCI  29
MUSCATINE *    SUNNY     37  23  56 NW15      29.97R WCI  28
QUAD CITIES    SUNNY     36  23  59 NW15      29.94R WCI  27
$$

IAZ062-063-075>077-085>089-095>099-101800-
   SOUTHEAST IOWA

CITY           SKY/WX    TMP DP  RH WIND       PRES   REMARKS
BURLINGTON     CLOUDY    38  25  59 NW16G23   29.96R WCI  29
FAIRFIELD *    SUNNY     37  23  56 NW22      29.98R WCI  27
FORT MADISON * SUNNY     37  25  60 W16       29.97S WCI  28
KEOKUK *       MOSUNNY   37  25  60 W12       29.98R WCI  30
OTTUMWA        SUNNY     40  25  55 NW21G26   30.00R WCI  30
WASHINGTON *   SUNNY     37  27  65 NW22G28   29.98R WCI  27
$$

ABBREVIATIONS USED IN REMARKS
   TC - TEMPERATURES IN CELSIUS
  WCI - WIND CHILL INDEX
   HX - HEAT INDEX
  VSB - VISIBILITY
$$





USA.gov is the U.S. government's official web portal to all federal, state and local government web resources and services.